To NAV CANADA Home Page Login to a new session Search on AWWS site Disclaimer Vers la page française équivalente Tips FAQ What's new on the site To the Forecasts and Observations / NOTAM section To "File a Flight Plan" website Publications and other links Update of the User's profile FIC Telephone Numbers My Weather Data Folder Route Weather Data Regional Weather Data Local Weather Data To the Forecasts and Observations / NOTAM section
Request Generated 03/19/2019 at 23:05:07 UTC . Weather information available at that time is displayed.

METAR/TAF

REVELSTOKE/BC    (show WxCam)

METAR CYRV 192300Z AUTO 17003KT 9SM CLR 06/M00 A3021 RMK SLP251=
METAR CYRV 192200Z AUTO 18003KT 9SM CLR 05/00 A3024 RMK SLP260=
METAR CYRV 192100Z AUTO 18003KT 9SM CLR 05/M01 A3026 RMK SLP269=

CYRV - No TAF is issued for this station

Your time UTC time
Weather data provided by Environment Canada and NAV CANADA